Flag for Canada Weather past 2 weeks in Wood Buffalo, Alberta, Canada

Now
40 °F

Chilly.


Feels Like: 31 °F
Forecast: 16 / 41 °F
Wind: 16 mph from Southeast

Location: Fort McMurray CS


UV Index: 3 (Moderate)

Visibility: N/A


Pressure: 30.09 "Hg

Humidity: 41%

Dew point: 18 °F

Location of Wood BuffaloLocation

Historic Weather in Wood Buffalo

°F

Wood Buffalo temperature yesterday

Maximum temperature yesterday: 38 °F (at 6:00 PM)
Minimum temperature yesterday: 15 °F (at 7:00 AM)
Average temperature yesterday: 25 °F

Past Weeks' High & Low Weather Summary

 TemperatureHumidityPressure
High61 °F (Apr 8, 6:00 PM)100% (Apr 4, 1:00 PM)30.57 "Hg (Apr 4, 1:00 PM)
Low-2 °F (Apr 12, 4:00 AM)24% (Apr 9, 5:00 PM)29.34 "Hg (Apr 8, 8:00 PM)
Average29 °F61%29.95 "Hg
* Reported Apr 2 2:00 PM — Apr 17 2:00 PM, Wood Buffalo, Weather by CustomWeather, © 2014

Note: Actual official high and low records may vary slightly from our data, if they occured in-between our weather recording intervals... More about our weather records

Advertising

Historic Weather Conditions — Data for Previous 24 hours

 ConditionsComfort  
Time TempWeatherWind HumidityBarometerVisibility
2:00 PM
Apr 17
40 °FChilly.16 mph41%30.09 "HgN/A
1:00 PM38 °FChilly.18 mph43%30.10 "HgN/A
12:00 PM38 °FChilly.15 mph47%30.12 "HgN/A
11:00 AM34 °FChilly.16 mph50%30.14 "HgN/A
10:00 AM32 °FChilly.15 mph57%30.16 "HgN/A
9:00 AM28 °FChilly.10 mph59%30.18 "HgN/A
8:00 AM24 °FCold.12 mph63%30.18 "HgN/A
7:00 AM21 °FCold.9 mph65%30.19 "HgN/A
6:00 AM20 °FCold.9 mph67%30.19 "HgN/A
5:00 AM19 °FCold.7 mph71%30.20 "HgN/A
4:00 AM21 °FCold.8 mph66%30.20 "HgN/A
3:00 AM23 °FCold.8 mph60%30.21 "HgN/A
2:00 AM22 °FCold.7 mph63%30.22 "HgN/A
1:00 AM24 °FCold.8 mph52%30.23 "HgN/A
12:00 AM24 °FCold.8 mph52%30.25 "HgN/A
11:00 PM
Apr 16
26 °FChilly.8 mph46%30.25 "HgN/A
10:00 PM28 °FChilly.10 mph42%30.27 "HgN/A
9:00 PM30 °FChilly.10 mph38%30.27 "HgN/A
8:00 PM31 °FChilly.14 mph35%30.27 "HgN/A
7:00 PM35 °FChilly.13 mph32%30.27 "HgN/A
6:00 PM38 °FChilly.14 mph30%30.27 "HgN/A
5:00 PM36 °FChilly.16 mph34%30.28 "HgN/A
4:00 PM36 °FChilly.14 mph40%30.29 "HgN/A
3:00 PM36 °FChilly.16 mph43%30.30 "HgN/A
Weather by CustomWeather, © 2014

See weather overview